UAE53 OMDB-EDDM

Flight info

Callsign UAE53
Flight time N/A
Altitude 36000
Route RIDAP M557 TUMAK L602 GADSI M860 SEPTU DCT VUSEB M860 NINVA UM860 ODALI UL852 MODAU/N0486F380 UL852 NEGEM DCT BULEN DCT DIRER DCT TISAK DCT BABIT DCT GOTAR DCT AMADI Q113 NAPSA NAPSA1B
Aircraft B77W/H-SDE1E2E3FGHIJ2J3J4J5M1RWXY/LB1D1

Departure

Time 2026-04-23 00:36
Airport Dubai International Airport (OMDB)

Arrival

Time N/A
Airport Munich Airport (EDDM)
Time Latitude Longitude Altitude Speed Heading
2026-04-23 00:10 25.24803 55.36439 26 ft 0 kts 211°
2026-04-23 00:26 25.24810 55.36444 26 ft 2 kts 211°
2026-04-23 00:26 25.24818 55.36449 26 ft 2 kts 210°
2026-04-23 00:26 25.24832 55.36456 26 ft 2 kts 197°
2026-04-23 00:26 25.24846 55.36460 26 ft 2 kts 185°
2026-04-23 00:27 25.24861 55.36460 26 ft 2 kts 175°
2026-04-23 00:27 25.24876 55.36458 26 ft 2 kts 164°
2026-04-23 00:27 25.24890 55.36453 26 ft 2 kts 153°
2026-04-23 00:27 25.24903 55.36444 26 ft 2 kts 143°
2026-04-23 00:28 25.24914 55.36433 26 ft 2 kts 132°
2026-04-23 00:28 25.24923 55.36422 26 ft 0 kts 122°
2026-04-23 00:28 25.24924 55.36418 26 ft 0 kts 121°
2026-04-23 00:30 25.24916 55.36433 26 ft 5 kts 121°
2026-04-23 00:31 25.24886 55.36489 26 ft 11 kts 122°
2026-04-23 00:31 25.24836 55.36579 26 ft 15 kts 119°
2026-04-23 00:31 25.24788 55.36705 27 ft 18 kts 104°
2026-04-23 00:31 25.24760 55.36825 31 ft 14 kts 110°
2026-04-23 00:32 25.24717 55.36911 34 ft 11 kts 122°
2026-04-23 00:32 25.24677 55.36983 35 ft 11 kts 121°
2026-04-23 00:32 25.24632 55.37065 36 ft 13 kts 121°
2026-04-23 00:32 25.24576 55.37163 36 ft 16 kts 117°
2026-04-23 00:33 25.24515 55.37273 36 ft 18 kts 122°
2026-04-23 00:33 25.24450 55.37400 36 ft 19 kts 112°
2026-04-23 00:33 25.24430 55.37556 36 ft 21 kts 92°
2026-04-23 00:33 25.24391 55.37694 42 ft 15 kts 99°
2026-04-23 00:34 25.24437 55.37780 44 ft 13 kts 36°
2026-04-23 00:34 25.24515 55.37838 44 ft 13 kts 34°
2026-04-23 00:34 25.24599 55.37899 43 ft 14 kts 36°
2026-04-23 00:34 25.24689 55.37965 42 ft 16 kts 31°
2026-04-23 00:35 25.24786 55.38017 42 ft 14 kts 358°
2026-04-23 00:35 25.24857 55.37936 42 ft 20 kts 301°
2026-04-23 00:35 25.25049 55.37591 40 ft 90 kts 302°
2026-04-23 00:35 25.25508 55.36761 34 ft 160 kts 301°
2026-04-23 00:36 25.26148 55.35561 316 ft 193 kts 301°
2026-04-23 00:36 25.26856 55.34269 1091 ft 202 kts 304°
2026-04-23 00:36 25.27599 55.32954 1693 ft 213 kts 304°
2026-04-23 00:36 25.28414 55.31511 2191 ft 229 kts 303°
2026-04-23 00:37 25.29291 55.29949 2713 ft 247 kts 303°
2026-04-23 00:37 25.30223 55.28293 3272 ft 265 kts 306°
2026-04-23 00:37 25.31318 55.26632 4029 ft 273 kts 306°
2026-04-23 00:37 25.32430 55.24938 4988 ft 274 kts 304°
2026-04-23 00:38 25.33522 55.23237 5909 ft 276 kts 303°
2026-04-23 00:38 25.34621 55.21510 6794 ft 278 kts 303°
2026-04-23 00:38 25.35551 55.19637 7656 ft 279 kts 284°
2026-04-23 00:38 25.35785 55.17539 8476 ft 279 kts 269°
2026-04-23 00:39 25.35738 55.15422 9375 ft 279 kts 266°